Skip Page Navigation
NASA JPL Caltech
NASA Logo - Jet Propulsion Laboratory + View the NASA Portal
+ Near-Earth Object (NEO) Program
Search JPL
JPL Home Earth Solar System Stars & Galaxies Technology
JPL Solar System Dynamics
BODIES ORBITS EPHEMERIDES TOOLS PHYSICAL DATA DISCOVERY FAQ SITE MAP
JPL Small-Body Database Browser
Search: [ help ]  
19228 Uemuraikuo (1993 SN1)
Classification: Main-belt Asteroid          SPK-ID: 2019228
Ephemeris | Orbit Diagram | Orbital Elements | Physical Parameters | Discovery Circumstances ]

[ show orbit diagram ]
Orbital Elements at Epoch 2456400.5 (2013-Apr-18.0) TDB
Reference: MPO231549 (heliocentric ecliptic J2000)
 Element Value Uncertainty (1-sigma)   Units 
e 0.1904190 n/a  
a 2.2358000 n/a AU
q 1.8100612 n/a AU
i 5.76418 n/a deg
node 160.82430 n/a deg
peri 190.09841 n/a deg
M 316.84501 n/a deg
tp 2456546.8781913
(2013-Sep-11.37819130)
n/a JED
period 1221.0905125
3.34
n/a
n/a
d
yr
n 0.29481844 n/a deg/d
Q 2.6615388 n/a AU
  Orbit Determination Parameters
   # obs. used (total)      634  
   first obs. used      1992-??-??  
   last obs. used      2012-05-09  
   # oppositions      13  
   planetary ephem.      DE403  
   condition code      0  
   fit RMS      0.57  
   data source      MPC:mpn  
   producer      MPCLINUX  

Additional Information
 T_jup = 3.608 

Ephemeris | Orbit Diagram | Orbital Elements | Physical Parameters | Discovery Circumstances ]

Physical Parameter Table
Parameter Symbol Value Units Sigma Reference Notes
absolute magnitude H 15.3 mag n/a PDS3 (MPO 6486)  

19228 Uemuraikuo           Discovered 1993 Sept. 16 by K. Endate and K. Watanabe at Kitami.
Ikuo Uemura (b. 1940) is a passionate and leading member of his local astronomical club Pleiades. Fascinated with cameras and photography since his youth, he diligently adds new images to his wide-ranging portfolio of astronomical objects.
NOTE: some special characters may not display properly (any characters within {} are an attempt to place the proper accent above a character)
Reference: 20130127/MPCPages.arcLast Updated: 2013-01-31

Alternate Designations
 1993 SN1 = 1999 JD73 
Ephemeris | Orbit Diagram | Orbital Elements | Physical Parameters | Discovery Circumstances ]
ABOUT SSD CREDITS/AWARDS PRIVACY/COPYRIGHT GLOSSARY LINKS
FirstGov 2013-May-22 06:04 UT
(server date/time)  
NASA Home Page
Site Manager:   Donald K. Yeomans
Webmaster  Alan B. Chamberlin